Tracking 32418 objects as of 9-Dec-2025
HD Live streaming from Space Station
objects crossing your sky now

DELTA 2 R/B(2)

Track DELTA 2 R/B(2) now!


NORAD ID: 25548
Int'l Code: 1998-068C
Perigee: 1,353.1 km
Apogee: 36,594.4 km
Inclination: 19.7 °
Period: 669.3 minutes
Semi major axis: 25344 km
RCS: 3.2304 m2 (large)
Launch date: November 22, 1998
Source: United States (US)
Launch site: AIR FORCE EASTERN TEST RANGE (AFETR)

Note: This is a ROCKET BODY
Your satellite tracking list
Your tracking list is empty




NASA's NSSDC Master Catalog

Two Line Element Set (TLE):
1 25548U 98068C   25342.08763107 -.00000148  00000-0  00000-0 0  9997
2 25548  19.7288 255.8406 6952371 132.3002 312.3306  2.15164349212665
Source of the keplerian elements: AFSPC